Regional Weather Roundup
Issued by NWS Newport/Morehead, NC

Current Version | Previous Version | Graphics & Text | Print | Product List | Glossary Off
Versions: 1 2 3 4 5 6 7 8 9 10 11 12 13 14 15 16 17 18 19 20 21 22 23 24 25 26 27 28 29 30 31 32 33 34 35 36 37 38 39 40 41 42 43 44 45 46 47 48 49 50

000
ASUS42 KMHX 090112
RWRMHX
WEATHER ROUNDUP FOR EASTERN NORTH CAROLINA
NATIONAL WEATHER SERVICE NEWPORT/MOREHEAD CITY NC
800 PM EST THU DEC 08 2016

NOTE: "FAIR" INDICATES FEW OR NO CLOUDS BELOW 12,000 FEET
WITH NO SIGNIFICANT WEATHER AND/OR OBSTRUCTIONS TO VISIBILITY

NCZ015>017-031-032-045>047-102-103-090200-
NORTH COAST

CITY           SKY/WX    TMP DP  RH WIND       PRES   REMARKS
EDENTON        MOCLDY    47  27  45 NW12      30.15R
ELIZABETH CITY MOCLDY    45  28  51 W17       30.13R
KITTY HAWK     CLOUDY    48  38  68 NW9       30.09S
MANTEO         CLOUDY    49  32  53 NW9G18    30.11S

$$

NCZ045>047-081-094-103-104-090200-
CENTRAL COAST

CITY           SKY/WX    TMP DP  RH WIND       PRES   REMARKS
FRISCO         PTCLDY    50  32  50 NW10G24   30.12R

$$

NCZ095-097-098-100-101-090200-
SOUTHERN COAST

CITY           SKY/WX    TMP DP  RH WIND       PRES   REMARKS
BEAUFORT       PTCLDY    48  32  53 NW13      30.16R
CEDAR ISLAND   NOT AVBL
JACKSONVILLE   PTCLDY    46  31  55 NW3       30.18R
PINEY ISLAND   PTCLDY   N/A N/A N/A NW9       30.15R
WILMINGTON     CLEAR     46  30  53 NW12      30.19R


$$

NCZ011>013-027>030-043-044-078>080-089-090>093-098-090200-
COASTAL PLAIN

CITY           SKY/WX    TMP DP  RH WIND       PRES   REMARKS
AHOSKIE        PTCLDY    41  24  49 CALM      30.17R
CLINTON        CLOUDY    47  28  47 NW5       30.20R
ELIZABETHTOWN  CLOUDY    47  28  46 CALM      30.19S
GOLDSBORO      CLOUDY    46  22  38 NW6       30.17R
GREENVILLE     CLOUDY    46  25  42 NW7       30.19R
HAVELOCK       PTCLDY    47  27  45 NW8       30.17R
KENANSVILLE    MOCLDY    46  27  46 NW8       30.19R
KINSTON        CLOUDY    46  23  39 NW5       30.19R
NEW BERN       CLOUDY    47  26  44 NW7       30.18R
RICHLANDS      CLOUDY    45  33  63 CALM      30.19R
ROCKY MOUNT    CLOUDY    44  23  43 CALM      30.18S
WASHINGTON     CLOUDY    46  27  47 NW7       30.17R
WHITEVILLE     PTCLDY    46  35  66 CALM      30.19R

$$

AMZ130-135-150-152-154-156-158-170-250-252-270-ANZ085-086-088-633-658-670-090200-
MARINE OBSERVATIONS

STATION/POSITION TIME  TEMP    WIND        PRES    WAVE   SWELL
                       AIR SEA DIR/SP/G            HT/PER HT/PER
                 (UTC) (F)     (DEG/KT/KT) (MB)    (FT/S) (FT/S)
CHESAPEAKE LIGHT NOT AVBL
64 E VA BEACH    0050   50 59  320/ 19/ 23 1017.9    4/ 5   2/ 8
DUCK             0048   49 53  300/ 16/ 20 1018.8
2 E DUCK         NOT AVBL
OREGON INLET     0036   50 54  300/ 11/ 14 1019.3
13E OREGON INLT  NOT AVBL
HATTERAS CG      0048   51 60  300/ 23/ 25 1019.5
DIAMOND BUOY     0050   53 77  330/ 21/ 25 1019.4    5/ 4   2/10
CAPE LOOKOUT     0000   51     320/ 15/ 20 1020.3
BEAUFORT LAB     0048   48 55  320/  7/ 11 1020.1
30 SE NEW RVR IN 0008   55 69  350/ 19/ 27 1020.8
30 SE NEW RVR IN NOT AVBL
27 SE WRIGHTSVLE 0008   56 66  330/ 17/ 25 1020.6
5 SE WRIGHTSVLE  0008   51 61  340/ 17/ 27 1021.2
225 S CAPE HAT   0050   72 74  290/ 16/ 19 1017.2    4/ 9   2/ 9
41 SE CHARLESTON 0050   62 73  350/ 19/ 23 1020.5    3/ 3   2/11

$$




USA.gov is the U.S. government's official web portal to all federal, state and local government web resources and services.